sat.trackr.live / text

‹ back to catalog

STARLINK-31680

NORAD 59380 · 2024-062G

PAYLOAD ACTIVE UNKNOWN

§ Identity

Operator
Country
US
Launch date
2024-04-02
Launch site
AFWTR
Launch vehicle
Mass (kg)
RCS (m²)

Purposes: comms

External: N2YO · Heavens-Above · Gunter

§ Orbital elements

Epoch: 2026-05-25T01:30:49.813920Z

Period
93.85 min
Inclination
53.1603°
Eccentricity
0.0001222
Mean motion
15.34391049 rev/d
Perigee alt
461.9 km
Apogee alt
463.6 km
Semi-major
6,840.9 km
B*
9.5438e-6
RAAN
263.1128°
Arg perigee
84.8368°
Mean anomaly
275.2774°
Rev number
12,129

§ Raw data

STARLINK-316801 59380U 24062G   26145.06307655 -.00000054  00000+0  95438-5 0  99922 59380  53.1603 263.1128 0001222  84.8368 275.2774 15.34391049121290

JSON: /api/v1/satellites/59380 · /tle

For live sub-satellite position, see the globe view (requires WebGL).

§ Visibility from observer

Set your observer location to see the next 7 days of passes ≥ 10°. The values pass through the URL so the page stays shareable.

No JS? Fill the form by hand. The geolocation button needs JavaScript.